Location: Anan
(43.3550°N, 0.8171°E)
Time: 11:00:10
(UTC+00:00)

Cosmos 1992 Rocket - Pass Details

Date: 14 May 2026
Orbit: 755 x 760 km, 74.0° (Epoch: 5 June)

Event Time Altitude Azimuth Distance (km) Brightness Sun altitude
Rises 20:21:15 0° 191° (S) 3,204 6.9 -11.2°
Reaches altitude 10° 20:23:37 10° 188° (S) 2,282 6.2 -11.5°
Maximum altitude 20:28:45 67° 107° (ESE) 821 3.9 -12.2°
Drops below altitude 10° 20:33:55 10° 25° (NNE) 2,296 6.7 -12.9°
Sets 20:36:18 0° 23° (NNE) 3,225 7.5 -13.2°
